COSMOS 2352

Satellite information

Favourite Embed

Satellite Type and Status

PAYLOADIN ORBIT

Key statistics

Satellite COSMOS 2352 at a glance.

Uptime

9826

Days in orbit

Revolutions

≈ 12.2

Per day

Orbit

LEO

Low Earth Orbit

Inclination

82.6

Latest

Satellite identification and parameters

Extended collection of information and parameters for COSMOS 2352.

Object identification

Identified? True

Debris? False

Object name: COSMOS 2352

International designator: 1998-036A

Object number (NORAD): 25363

Object ID (CCSDS): 25363

Country: COMMONWEALTH OF INDEPENDENT STATES (CIS)

Current information (Y/N): Y

RCS size: LARGE

Orbital parameters

Period: 118.021 minutes

Inclination: 82.5924 deg

SMA: 7970.139 km

Apoapsis: 1872.85 km

Periapsis: 1311.158 km

RAAN: 241.0248 deg

Eccentricy: 0.0352373

Argument of periapsis: 30.8789 deg

Mean anomaly: 90.415 deg

Mean motion: 12.20123909 rev/day

Mean motion (dot): -0.00000014 rev/day2

B* drag term: -0.00019793 1/REarth

Two-line elements (TLE)

Creation date: May 10, 2025, 2:32 a.m.

Reference frame: TEME

Reference center: EARTH

Epoch: May 9, 2025, 7:23 p.m. UTC

TLE line 0: 0 COSMOS 2352

TLE line 1: 1 25363U 98036A 25129.80808368 -.00000014 00000-0 -19793-3 0 9994

TLE line 2: 2 25363 82.5924 241.0248 0352373 30.8789 90.4150 12.20123909198107

Live tracking on map

Real-time ground track for satellite COSMOS 2352.

In-orbit conjunctions

There are no conjunctions computed for COSMOS 2352, at the moment. Check back to stay up to date, as we update our databases every day.

Go to all conjunctions

Associated space launch

Second generation store-dump military communications satellites

COSMOS 2352 was lifted into orbit during the mission ‘Tsiklon-3 | Strela-3 119 to 124’, on board a Tsiklon-3 space rocket.

The launch took place on June 15, 1998, 10:58 p.m. from 32/1.

For more information about the launch, click the button.

Launch to space Tsiklon-3 | Strela-3 119 to 124
Tsiklon-3 | Strela-3 119 to 124

Agency: N/A

Status: Launch Successful

Launch date: June 15, 1998, 10:58 p.m. UTC

Rocket: Tsiklon-3

Launch pad: 32/1

Location: Plesetsk Cosmodrome, Russian Federation

...

Latest news about this satellite

There are no fresh news available about this satellite. Check back as we update our databases every day.


Newsletter sign-up

Weekly statistics, charts and insights to help you stay on top of the space industry.